Flag for Romania Weather past 2 weeks in Târgu Mureş, Romania

Now
57 °F

Light rain. Scattered clouds.


Feels Like: 56 °F
Forecast: 49 / 66 °F
Wind: 7 mph from East

Location: Tirgu Mures Airport


UV Index: 3 (Moderate)

Visibility: N/A


Pressure: 29.95 "Hg

Humidity: 100%

Dew point: 57 °F

Location of Târgu MureşLocation

Historic Weather in Târgu Mureş

°F

Târgu Mureş temperature yesterday

Maximum temperature yesterday: 68 °F (at 3:30 PM)
Minimum temperature yesterday: 45 °F (at 3:00 AM)
Average temperature yesterday: 57 °F

Past Weeks' High & Low Weather Summary

 TemperatureHumidityPressure
High73 °F (Apr 21, 4:30 PM)100% (Apr 11, 5:30 AM)30.09 "Hg (Apr 11, 5:30 AM)
Low37 °F (Apr 21, 4:00 AM)27% (Apr 21, 6:30 PM)29.59 "Hg (Apr 19, 12:00 AM)
Average52 °F79%29.91 "Hg
* Reported Apr 9 7:00 PM — Apr 24 7:30 PM, Târgu Mureş, Weather by CustomWeather, © 2014

Note: Actual official high and low records may vary slightly from our data, if they occured in-between our weather recording intervals... More about our weather records

Advertising

Historic Weather Conditions — Data for Previous 24 hours

 ConditionsComfort  
Time TempWeatherWind HumidityBarometerVisibility
7:30 PM
Apr 24
59 °FSunny.9 mph88%29.95 "Hg10 mi
7:00 PM59 °FSunny.7 mph94%29.95 "Hg10 mi
6:30 PM59 °FLight rain. Partly sunny.9 mph88%29.95 "HgN/A
6:00 PM59 °FLight rain. Partly sunny.14 mph88%29.95 "HgN/A
5:30 PM59 °FLight rain. Partly sunny.9 mph100%29.95 "HgN/A
5:00 PM61 °FLight rain. Partly sunny.9 mph94%29.95 "HgN/A
4:30 PM61 °FLight rain. Partly sunny.7 mph94%29.98 "HgN/A
4:00 PM61 °FLight rain. Partly sunny.7 mph94%29.98 "HgN/A
3:30 PM61 °FLight rain. Partly sunny.7 mph88%29.98 "HgN/A
3:00 PM61 °FLight rain. Partly sunny.9 mph94%29.98 "HgN/A
2:30 PM61 °FLight rain. Partly sunny.7 mph94%29.98 "HgN/A
2:00 PM61 °FLight rain. Partly sunny.7 mph94%29.98 "HgN/A
1:30 PM61 °FLight rain. Scattered clouds.9 mph88%29.98 "HgN/A
1:00 PM63 °FLight rain. Clear.12 mph83%29.98 "HgN/A
12:30 PM63 °FClear.5 mph88%29.98 "HgN/A
12:00 PM63 °FScattered clouds.2 mph83%29.98 "Hg4 mi
11:30 AM63 °FScattered clouds.2 mph77%29.98 "Hg4 mi
11:00 AM63 °FFog.5 mph77%29.98 "Hg3 mi
10:30 AM61 °FClear.2 mph83%29.98 "Hg4 mi
10:00 AM59 °FClear.5 mph88%29.98 "Hg6 mi
9:30 AM59 °FClear.2 mph88%29.98 "Hg5 mi
9:00 AM57 °FSunny.2 mph94%29.95 "Hg10 mi
8:30 AM55 °FClear.2 mph94%29.95 "Hg6 mi
8:00 AM54 °FClear.No wind94%29.98 "Hg5 mi
7:30 AM54 °FClear.2 mph88%29.95 "Hg6 mi
7:00 AM52 °FClear.2 mph94%29.95 "Hg6 mi
6:30 AM52 °FClear.2 mph100%29.95 "Hg5 mi
6:00 AM52 °FClear.5 mph100%29.95 "Hg5 mi
5:30 AM52 °FClear.7 mph100%29.95 "Hg5 mi
5:00 AM52 °FClear.5 mph100%29.95 "Hg4 mi
4:00 AM52 °FClear.5 mph100%29.98 "Hg4 mi
3:00 AM54 °FClear.5 mph100%29.98 "Hg5 mi
2:00 AM52 °FClear.5 mph100%29.98 "Hg5 mi
1:00 AM54 °FClear.7 mph100%30.01 "Hg5 mi
12:00 AM52 °FClear.5 mph100%30.01 "Hg10 mi
11:00 PM
Apr 23
52 °FClear.2 mph100%30.04 "Hg10 mi
10:00 PM55 °FClear.2 mph94%30.04 "Hg10 mi
9:00 PM59 °FPassing clouds.No wind88%30.01 "HgN/A
8:30 PM63 °FPassing clouds.No wind77%30.01 "HgN/A
8:00 PM63 °FPassing clouds.2 mph77%30.01 "HgN/A
Weather by CustomWeather, © 2014

See weather overview